{"data":{"norad_id":61671,"epoch":"2026-05-25T03:28:39.982944Z","epoch_age_seconds":65599,"freshness":"FRESH","line1":"1 61671U 24193L   26145.14490721 -.00000559  00000+0 -67358-5 0  9990","line2":"2 61671  53.1599  95.7806 0001279  82.4932 277.6214 15.30193733 88232","mean_motion":15.30193733,"eccentricity":0.0001279,"inclination_deg":53.1599,"raan_deg":95.7806,"arg_perigee_deg":82.4932,"mean_anomaly_deg":277.6214,"bstar":-6.7358e-6,"rev_number":8823,"period_min":94.105731120518,"perigee_km":474.35723549259,"apogee_km":476.11032773852,"semimajor_km":6853.3707816156,"source":"CELESTRAK","updated_at":"2026-05-25T13:38:19.434887Z"}}